When you browse on this site, cookies collect data to enhance your experience and personalize the content and advertising you see.
Visit our Privacy Policy to learn more. By continuing to use the site, you agree to this use of cookies and data.
  • In Romania
  • List of Countries
  • For 7 days
  • Water Temperature
  • Weather Map
  • Weather Widgets
  • user-avatar
    Login

    Hourly Weather Kingston upon Thames

    Today, 26 January, Sunday

    Time Temperature Precipitation Wind Pressure Humidity
    00:00 +4°C° 0 mm 3 mps 758 mmHg 96%
    01:00 +5°C° 0 mm 3 mps 758 mmHg 96%
    02:00 +5°C° 0 mm 3 mps 757 mmHg 96%
    03:00 +5°C° 0 mm 3 mps 757 mmHg 97%
    04:00 +7°C° 0 mm 3 mps 757 mmHg 96%
    05:00 +7°C° 0 mm 3 mps 756 mmHg 95%
    06:00 +6°C° 0 mm 4 mps 756 mmHg 94%
    07:00 +6°C° 0 mm 4 mps 756 mmHg 93%
    08:00 +6°C° 0 mm 4 mps 756 mmHg 93%
    09:00 +6°C° 0 mm 4 mps 756 mmHg 92%
    10:00 +7°C° 0 mm 5 mps 756 mmHg 88%
    11:00 +8°C° 0 mm 6 mps 755 mmHg 84%
    12:00 +9°C° 0 mm 6 mps 755 mmHg 79%
    13:00 +8°C° 0.4 mm 7 mps 754 mmHg 82%
    14:00 +8°C° 0.4 mm 7 mps 754 mmHg 85%
    15:00 +8°C° 0.4 mm 7 mps 754 mmHg 88%
    16:00 +8°C° 1.7 mm 6 mps 753 mmHg 89%
    17:00 +8°C° 1.7 mm 6 mps 753 mmHg 90%
    18:00 +8°C° 1.7 mm 5 mps 753 mmHg 92%
    19:00 +7°C° 1.2 mm 4 mps 752 mmHg 91%
    20:00 +7°C° 1.2 mm 4 mps 752 mmHg 91%
    21:00 +8°C° 1.2 mm 3 mps 752 mmHg 91%
    22:00 +7°C° 0.1 mm 3 mps 752 mmHg 91%
    23:00 +7°C° 0.1 mm 3 mps 752 mmHg 92%

    Tomorrow, 27 January, Monday

    Time Temperature Precipitation Wind Pressure Humidity
    00:00 +6°C° 0.1 mm 2 mps 752 mmHg 92%
    01:00 +5°C° 0 mm 3 mps 751 mmHg 92%
    02:00 +5°C° 0 mm 3 mps 751 mmHg 92%
    03:00 +5°C° 0 mm 4 mps 751 mmHg 93%
    04:00 +5°C° 0 mm 4 mps 751 mmHg 91%
    05:00 +5°C° 0 mm 4 mps 750 mmHg 89%
    06:00 +5°C° 0 mm 4 mps 750 mmHg 87%
    07:00 +5°C° 0.1 mm 4 mps 750 mmHg 88%
    08:00 +5°C° 0.1 mm 4 mps 750 mmHg 89%
    09:00 +5°C° 0.1 mm 4 mps 750 mmHg 90%
    10:00 +5°C° 0.9 mm 4 mps 749 mmHg 87%
    11:00 +5°C° 0.9 mm 4 mps 749 mmHg 84%
    12:00 +5°C° 0.9 mm 4 mps 748 mmHg 82%
    13:00 +6°C° 0.6 mm 4 mps 748 mmHg 82%
    14:00 +6°C° 0.6 mm 4 mps 747 mmHg 83%
    15:00 +6°C° 0.6 mm 4 mps 747 mmHg 83%
    16:00 +7°C° 0.1 mm 3 mps 746 mmHg 85%
    17:00 +5°C° 0.1 mm 3 mps 746 mmHg 86%
    18:00 +5°C° 0.1 mm 2 mps 745 mmHg 88%
    19:00 +5°C° 0 mm 2 mps 745 mmHg 88%
    20:00 +5°C° 0 mm 2 mps 744 mmHg 88%
    21:00 +5°C° 0 mm 2 mps 744 mmHg 89%
    22:00 +4°C° 0.3 mm 3 mps 743 mmHg 89%
    23:00 +4°C° 0.3 mm 3 mps 742 mmHg 89%

    Day after tomorrow, 28 January, Tuesday

    Time Temperature Precipitation Wind Pressure Humidity
    00:00 +4°C° 0.3 mm 3 mps 741 mmHg 89%
    01:00 +3°C° 0.9 mm 4 mps 741 mmHg 89%
    02:00 +2°C° 0.9 mm 5 mps 741 mmHg 90%
    03:00 +2°C° 0.9 mm 6 mps 741 mmHg 90%
    04:00 +1°C° 0 mm 6 mps 741 mmHg 86%
    05:00 0°C° 0 mm 7 mps 742 mmHg 81%
    06:00 0°C° 0 mm 7 mps 743 mmHg 77%
    07:00 0°C° 0 mm 7 mps 744 mmHg 75%
    08:00 +1°C° 0 mm 6 mps 744 mmHg 73%
    09:00 +1°C° 0 mm 5 mps 745 mmHg 71%
    10:00 +2°C° 0 mm 6 mps 745 mmHg 71%
    11:00 +3°C° 0 mm 7 mps 746 mmHg 71%
    12:00 +4°C° 0 mm 7 mps 746 mmHg 71%
    13:00 +4°C° 0.1 mm 7 mps 746 mmHg 70%
    14:00 +4°C° 0.1 mm 7 mps 746 mmHg 70%
    15:00 +4°C° 0.1 mm 6 mps 746 mmHg 69%
    16:00 +3°C° 0.1 mm 6 mps 746 mmHg 70%
    17:00 +2°C° 0.1 mm 6 mps 747 mmHg 71%
    18:00 +1°C° 0.1 mm 6 mps 747 mmHg 72%
    19:00 +1°C° 0 mm 6 mps 747 mmHg 73%
    20:00 +1°C° 0 mm 6 mps 748 mmHg 75%
    21:00 0°C° 0 mm 5 mps 748 mmHg 76%
    22:00 0°C° 0 mm 5 mps 749 mmHg 76%
    23:00 0°C° 0 mm 5 mps 749 mmHg 75%

    29 January, Wednesday

    Time Temperature Precipitation Wind Pressure Humidity
    00:00 0°C° 0 mm 5 mps 750 mmHg 75%
    01:00 0°C° 0 mm 5 mps 750 mmHg 75%
    02:00 -1°C° 0 mm 5 mps 751 mmHg 75%
    03:00 -1°C° 0 mm 5 mps 752 mmHg 75%
    04:00 -1°C° 0 mm 5 mps 752 mmHg 76%
    05:00 -1°C° 0 mm 5 mps 753 mmHg 76%
    06:00 -1°C° 0 mm 5 mps 753 mmHg 76%
    07:00 0°C° 0 mm 5 mps 754 mmHg 77%
    08:00 0°C° 0 mm 5 mps 754 mmHg 77%
    09:00 0°C° 0 mm 5 mps 755 mmHg 77%
    10:00 +2°C° 0 mm 6 mps 755 mmHg 73%
    11:00 +3°C° 0 mm 6 mps 755 mmHg 69%
    12:00 +4°C° 0 mm 7 mps 756 mmHg 65%
    13:00 +4°C° 0 mm 6 mps 756 mmHg 66%
    14:00 +5°C° 0 mm 5 mps 756 mmHg 67%
    15:00 +5°C° 0 mm 5 mps 756 mmHg 67%
    16:00 +4°C° 0 mm 4 mps 757 mmHg 72%
    17:00 +3°C° 0 mm 4 mps 757 mmHg 77%
    18:00 +2°C° 0 mm 3 mps 757 mmHg 82%
    19:00 +2°C° 0 mm 3 mps 758 mmHg 84%
    20:00 +2°C° 0 mm 3 mps 758 mmHg 86%
    21:00 +2°C° 0 mm 2 mps 758 mmHg 87%
    22:00 +2°C° 0 mm 2 mps 759 mmHg 88%
    23:00 +2°C° 0 mm 2 mps 759 mmHg 88%

    30 January, Thursday

    Time Temperature Precipitation Wind Pressure Humidity
    00:00 +2°C° 0 mm 2 mps 759 mmHg 88%
    01:00 +2°C° 0 mm 2 mps 759 mmHg 88%
    02:00 +2°C° 0 mm 2 mps 758 mmHg 88%
    03:00 +3°C° 0 mm 1 mps 758 mmHg 88%
    04:00 +2°C° 0 mm 2 mps 758 mmHg 89%
    05:00 +2°C° 0 mm 2 mps 758 mmHg 90%
    06:00 +3°C° 0 mm 2 mps 757 mmHg 91%
    07:00 +3°C° 0 mm 2 mps 757 mmHg 91%
    08:00 +3°C° 0 mm 3 mps 757 mmHg 91%
    09:00 +3°C° 0 mm 3 mps 757 mmHg 91%
    10:00 +4°C° 0 mm 4 mps 757 mmHg 87%
    11:00 +5°C° 0 mm 5 mps 756 mmHg 83%
    12:00 +7°C° 0 mm 5 mps 756 mmHg 80%
    13:00 +6°C° 0 mm 5 mps 755 mmHg 80%
    14:00 +5°C° 0 mm 6 mps 754 mmHg 81%
    15:00 +5°C° 0 mm 6 mps 754 mmHg 82%
    16:00 +6°C° 0 mm 5 mps 753 mmHg 85%
    17:00 +6°C° 0 mm 5 mps 753 mmHg 89%
    18:00 +6°C° 0 mm 4 mps 753 mmHg 92%
    19:00 +6°C° 0 mm 4 mps 753 mmHg 94%
    20:00 +6°C° 0 mm 4 mps 753 mmHg 95%
    21:00 +7°C° 0 mm 3 mps 753 mmHg 96%
    22:00 +8°C° 0 mm 3 mps 753 mmHg 97%
    23:00 +8°C° 0 mm 3 mps 753 mmHg 97%

    31 January, Friday

    Time Temperature Precipitation Wind Pressure Humidity
    00:00 +8°C° 0 mm 3 mps 753 mmHg 98%
    01:00 +8°C° 0 mm 3 mps 753 mmHg 98%
    02:00 +9°C° 0 mm 3 mps 753 mmHg 98%
    03:00 +9°C° 0 mm 3 mps 752 mmHg 98%
    04:00 +9°C° 0 mm 3 mps 752 mmHg 98%
    05:00 +10°C° 0 mm 3 mps 752 mmHg 98%
    06:00 +10°C° 0 mm 3 mps 752 mmHg 98%
    07:00 +10°C° 0 mm 4 mps 752 mmHg 97%
    08:00 +10°C° 0 mm 4 mps 753 mmHg 97%
    09:00 +10°C° 0 mm 5 mps 753 mmHg 96%
    10:00 +10°C° 0 mm 5 mps 753 mmHg 94%
    11:00 +10°C° 0 mm 5 mps 753 mmHg 91%
    12:00 +10°C° 0 mm 6 mps 753 mmHg 89%
    13:00 +10°C° 0.1 mm 6 mps 753 mmHg 90%
    14:00 +10°C° 0.1 mm 6 mps 753 mmHg 91%
    15:00 +10°C° 0.1 mm 5 mps 753 mmHg 92%
    16:00 +10°C° 0.2 mm 5 mps 753 mmHg 91%
    17:00 +10°C° 0.2 mm 5 mps 754 mmHg 90%
    18:00 +10°C° 0.2 mm 4 mps 754 mmHg 89%
    19:00 +8°C° 0 mm 4 mps 755 mmHg 88%
    20:00 +7°C° 0 mm 4 mps 755 mmHg 86%
    21:00 +6°C° 0 mm 4 mps 756 mmHg 85%
    22:00 +6°C° 0 mm 4 mps 756 mmHg 86%
    23:00 +6°C° 0 mm 4 mps 757 mmHg 86%
    Show more